Location: Newark
(44.6028°N, 124.0883°W)
Time: 02:40:37
(UTC+00:00)

Transit 2A - Visible Passes

Search period start: 16 October 2019 00:00
Search period end: 26 October 2019 00:00
Orbit: 600 x 959 km, 66.7° (Epoch: 15 October)

Date Brightness Start Highest point End Pass type
(mag) Time Alt. Az. Time Alt. Az. Time Alt. Az.
16 Oct 8.6 11:12:19 10° NNE 11:12:54 10° NNE 11:13:30 10° NE visible
16 Oct 6.2 12:52:50 10° NNW 12:57:10 53° NE 13:01:24 10° SE visible
17 Oct 8.0 03:34:00 10° S 03:35:03 15° S 03:35:03 15° S visible
17 Oct 7.0 12:19:44 15° NNW 12:22:58 36° NE 12:26:57 10° ESE visible
17 Oct 6.6 14:02:19 10° NW 14:05:53 25° WSW 14:09:27 10° SSW visible
18 Oct 7.4 03:00:39 10° SSE 03:03:17 20° SE 03:03:17 20° SE visible
18 Oct 8.2 04:42:30 10° SW 04:43:52 17° SW 04:43:52 17° SW visible
18 Oct 7.5 11:47:32 23° NNE 11:48:41 26° NE 11:52:20 10° ESE visible
18 Oct 6.0 13:28:06 11° NW 13:31:55 38° WSW 13:35:57 10° S visible
19 Oct 7.5 02:27:46 10° SE 02:31:00 16° ESE 02:31:22 16° ESE visible
19 Oct 6.8 04:08:12 10° SW 04:11:57 43° SW 04:11:57 43° SW visible
19 Oct 8.2 11:15:29 17° ENE 11:15:29 17° ENE 11:17:29 10° E visible
19 Oct 5.5 12:56:04 32° NW 12:57:53 60° WSW 13:02:10 10° SSE visible
20 Oct 7.9 01:56:16 10° ESE 01:57:06 10° ESE 01:57:55 10° E visible
20 Oct 5.8 03:34:05 10° SSW 03:39:35 75° ESE 03:39:52 73° E visible
20 Oct 8.7 05:19:21 10° W 05:20:25 14° W 05:20:25 14° W visible
20 Oct 5.5 12:24:09 76° SE 12:24:09 76° SE 12:28:10 10° SSE visible
21 Oct 6.1 03:00:11 10° SSW 03:05:30 52° ESE 03:07:36 32° ENE visible
21 Oct 7.9 04:44:25 10° WSW 04:48:09 26° WNW 04:48:09 26° WNW visible
21 Oct 7.5 11:52:19 22° SE 11:52:19 22° SE 11:53:57 10° SE visible
21 Oct 7.2 13:32:55 15° WSW 13:32:55 15° WSW 13:34:45 10° SW visible
22 Oct 6.6 02:26:29 10° S 02:31:28 36° ESE 02:35:09 15° NE visible
22 Oct 7.3 04:09:42 10° WSW 04:14:37 36° NW 04:15:41 33° NNW visible
22 Oct 7.6 13:01:08 13° SSW 13:01:08 13° SSW 13:01:48 10° SSW visible
23 Oct 7.1 01:53:05 10° SSE 01:57:28 25° ESE 02:01:32 10° ENE visible
23 Oct 6.7 03:35:11 10° SW 03:40:24 50° NW 03:43:04 25° N visible
23 Oct 8.9 05:23:11 10° NW 05:23:35 11° NW 05:23:35 11° NW visible
24 Oct 6.1 03:00:51 10° SW 03:06:15 71° WNW 03:10:19 15° NNE visible
24 Oct 8.5 04:47:25 10° WNW 04:50:11 14° NW 04:50:50 14° NNW visible
25 Oct 5.9 02:26:41 10° SSW 02:32:07 81° ESE 02:37:02 10° NE visible
25 Oct 8.2 04:12:10 10° W 04:15:47 19° NW 04:17:57 15° N visible
